This demonstration page uses our WeatherBlox Daily Observations layout. Learn more.

Left ArrowRight Arrow

39.12711, -84.51439

Hourly Observations for January 29, 2018

Temp ( °F °C ) Dew Point ( °F °C ) Humidity (%) Winds ( mph kmh ) Pressure ( in mb ) Visibility ( mi km ) Precip ( " mm )
12:03 am 00:03 Clear 28 -2.2 27 -2.8 96 96 N N/A 30.30 1026 8 13 N/A
12:53 am 00:53 Clear 28 -2.2 27 -2.8 96 96 N N/A 30.28 1025 10 16 N/A
1:10 am 01:10 Clear with Mist and Fog 27 -2.8 26 -3.3 96 96 N N/A 30.30 1026 2 3 N/A
1:49 am 01:49 Clear with Mist and Fog 27 -3 27 -3 100 100 N N/A 30.27 1025 3 5 N/A
1:53 am 01:53 Clear 28 -2.2 27 -2.8 96 96 N N/A 30.26 1025 8 13 N/A
2:26 am 02:26 Clear with Mist and Fog 27 -2.8 27 -2.8 100 100 N N/A 30.27 1025 3 4 N/A
2:35 am 02:35 Clear with Mist and Fog 27 -2.8 27 -2.8 100 100 N N/A 30.27 1025 5 8 N/A
2:53 am 02:53 Clear 27 -2.8 27 -2.8 100 100 N N/A 30.26 1025 10 16 N/A
3:53 am 03:53 Clear 28 -2.2 27 -2.8 96 96 N N/A 30.25 1025 8 13 N/A
4:53 am 04:53 Cloudy 29 -1.7 28 -2.2 96 96 N N/A 30.25 1024 10 16 N/A
5:53 am 05:53 Cloudy 29 -1.7 28 -2.2 96 96 N N/A 30.25 1024 10 16 N/A
6:53 am 06:53 Cloudy 29 -1.7 28 -2.2 96 96 N N/A 30.25 1024 10 16 N/A
7:53 am 07:53 Cloudy 31 -0.6 30 -1.1 96 96 N N/A 30.26 1025 10 16 N/A
8:53 am 08:53 Cloudy 31 -0.6 30 -1.1 96 96 N N/A 30.25 1024 10 16 N/A
9:53 am 09:53 Cloudy 36 2.2 32 undefined 86 86 W 10 17 30.26 1025 10 16 N/A
10:53 am 10:53 Cloudy 37 2.8 31 -0.6 79 79 WNW 6 9 30.27 1025 10 16 N/A
11:10 am 11:10 Cloudy 37 2.8 31 -0.6 79 79 WNW 8 13 30.27 1025 9 14 N/A
11:53 am 11:53 Cloudy 36 2.2 29 -1.7 76 76 NW 8 13 30.27 1025 10 16 N/A
12:53 pm 12:53 Cloudy 36 2.2 27 -2.8 70 70 W 10 17 30.26 1025 10 16 N/A
1:53 pm 13:53 Cloudy 35 1.7 26 -3.3 70 70 W 13 20 30.24 1024 10 16 N/A
2:53 pm 14:53 Cloudy 35 1.7 25 -3.9 67 67 WNW 6 9 30.24 1024 10 16 N/A
3:53 pm 15:53 Cloudy 34 1.1 26 -3.3 73 73 VRB 7 11 30.24 1024 10 16 N/A
4:53 pm 16:53 Cloudy with Light Snow 33 0.6 27 -2.8 78 78 NW 6 9 30.25 1024 5 8 N/A
5:53 pm 17:53 Cloudy with Light Snow 32 undefined 26 -3.3 79 79 NNW 15 24 30.27 1025 6 10 N/A
6:53 pm 18:53 Cloudy 32 undefined 24 -4.4 73 73 NNW 9 15 30.30 1026 10 16 N/A
7:53 pm 19:53 Cloudy 31 -0.6 24 -4.4 76 76 NNW 9 15 30.32 1027 10 16 N/A
8:53 pm 20:53 Cloudy with Light Snow 30 -1.1 23 -5 75 75 N 15 24 30.34 1028 8 13 N/A
9:00 pm 21:00 Cloudy 30 -1.1 23 -5 75 75 NNW 12 19 30.36 1028 9 14 N/A
9:53 pm 21:53 Cloudy with Light Snow 30 -1.1 23 -5 75 75 NNW 12 19 30.36 1028 7 11 N/A
10:02 pm 22:02 Cloudy 30 -1.1 22 -5.6 72 72 NNW 15 24 30.39 1029 9 14 N/A
10:53 pm 22:53 Cloudy 30 -1.1 23 -5 75 75 NNW 8 13 30.37 1029 10 16 N/A
11:50 pm 23:50 Cloudy 28 -2 21 -6 74 74 NNW 9 15 30.39 1029 10 16 N/A
11:53 pm 23:53 Cloudy 29 -1.7 21 -6.1 72 72 NNW 8 13 30.39 1029 10 16 N/A

Powered by AerisWeather